Backoo, North Dakota
Current Conditions -  °F | °C
As of 7:35 PM on Tuesday 21 Oct 2014 (Local Time) from K2C8 Reporting Station
Clear Clear  
Wind Chill: 59°   Ceiling: Unl
Heat Index: 59°   Visibility: 10mi
Dew Point: 41°   Wind: 16mph
Humidity: 51%   Direction: 150°SSE
Pressure: 29.81"   Gusts: 23mph
Location:  48.8218°N, 97.697°W
Report Text: K2C8 220035Z AUTO 15014G20KT 10SM CLR 15/05 A2981 RMK AO2
Loading
Personal Weather Stations






























Interactive Weather Map
Tropical Storm Tracking
New forecast layout! Learn more

10-Day Weather Forecast

Advertisements
Track Severe Weather on mobile